This is the latest recevied weather packets stored in our database for station/object K2ATL. If no packets are shown the sender has not sent any weather packets the latest 10 day(s).
| Time | Temp. | Humidity | Pressure | Rain* | Wind** | Luminosity | Snow |
|---|---|---|---|---|---|---|---|
| 1777831220 | 15.56° C | 48% | 1104 hPa | 0 mm | - | 955 W/m² | - |
| 1777830918 | 16.67° C | 45% | 1104.2 hPa | 0 mm | - | 957 W/m² | - |
| 1777830615 | 15.56° C | 47% | 1104.3 hPa | 0 mm | - | 958 W/m² | - |
| 1777830312 | 13.33° C | 53% | 1104.3 hPa | 0 mm | - | 956 W/m² | - |
| 1777830008 | 15° C | 50% | 1104.2 hPa | 0 mm | - | 961 W/m² | - |
| 1777829703 | 14.44° C | 47% | 1104.2 hPa | 0 mm | - | 962 W/m² | - |
| 1777829400 | 16.11° C | 46% | 1104.5 hPa | 0 mm | - | 963 W/m² | - |
| 1777829098 | 15° C | 46% | 1104.6 hPa | 0 mm | - | 960 W/m² | - |
| 1777828795 | 15° C | 44% | 1104.6 hPa | 0 mm | - | 961 W/m² | - |
| 1777828491 | 13.89° C | 44% | 1104.8 hPa | 0 mm | - | 960 W/m² | - |
| 1777828188 | 14.44° C | 43% | 1104.7 hPa | 0 mm | - | 959 W/m² | - |
| 1777827884 | 13.89° C | 45% | 1104.6 hPa | 0 mm | - | 592 W/m² | - |
| 1777827581 | 14.44° C | 44% | 1104.8 hPa | 0 mm | - | 75 W/m² | - |
| 1777827279 | 13.89° C | 46% | 1104.7 hPa | 0 mm | - | 469 W/m² | - |
| 1777826975 | 13.33° C | 44% | 1104.7 hPa | 0 mm | - | 941 W/m² | - |
| 1777826673 | 13.89° C | 46% | 1104.9 hPa | 0 mm | - | 934 W/m² | - |
| 1777826369 | 13.33° C | 50% | 1104.9 hPa | 0 mm | - | 932 W/m² | - |
| 1777826066 | 12.22° C | 45% | 1105 hPa | 0 mm | - | 928 W/m² | - |
| 1777825763 | 12.22° C | 47% | 1105 hPa | 0 mm | - | 920 W/m² | - |
| 1777825461 | 12.78° C | 47% | 1104.9 hPa | 0 mm | - | 913 W/m² | - |
| 1777825158 | 11.11° C | 49% | 1105 hPa | 0 mm | - | 907 W/m² | - |
| 1777824854 | 11.67° C | 49% | 1105.2 hPa | 0 mm | - | 907 W/m² | - |
| 1777824551 | 11.11° C | 48% | 1104.9 hPa | 0 mm | - | 895 W/m² | - |
| 1777824248 | 11.67° C | 47% | 1105.1 hPa | 0 mm | - | 885 W/m² | - |
| 1777823943 | 11.11° C | 50% | 1105.1 hPa | 0 mm | - | 875 W/m² | - |
* Rain latest hour (hover to see other rain measurements)
** Current wind speed in m/s (hover to see current wind gust speed)